Location: Palomar Mountain Lodge
(33.3110°N, 116.8495°W)
Time: 09:30:19
(UTC-08:00)

Sakura Rocket - Visible Passes

Search period start: 07 March 2026 00:00
Search period end: 17 March 2026 01:00
Orbit: 475 x 1690 km, 28.7° (Epoch: 7 March)

Date Brightness Start Highest point End Pass type
(mag) Time Alt. Az. Time Alt. Az. Time Alt. Az.
7 Mar 5.6 04:13:23 13° S 04:15:03 15° SSE 04:17:50 10° SE visible
8 Mar 6.1 04:22:02 12° SE 04:22:02 12° SE 04:23:03 10° SE visible
8 Mar 4.7 06:09:05 10° SW 06:13:45 29° SSE 06:17:30 10° ESE visible
9 Mar 5.0 05:17:26 23° SSW 05:19:13 26° SSE 05:23:17 10° ESE visible
10 Mar 5.5 04:25:57 22° SE 04:25:57 22° SE 04:28:57 10° ESE visible
10 Mar 4.2 06:12:46 11° WSW 06:17:56 41° S 06:22:08 10° ESE visible
11 Mar 6.5 03:34:25 10° ESE 03:34:25 10° ESE 03:34:25 10° ESE visible
11 Mar 4.5 05:21:13 30° SSW 05:23:21 39° S 05:28:01 10° E visible
12 Mar 5.0 04:29:36 35° SSE 04:29:36 35° SSE 04:33:49 10° E visible
12 Mar 4.0 06:16:24 11° WSW 06:22:05 51° S 06:26:34 10° ESE visible
13 Mar 6.1 03:37:57 17° ESE 03:37:57 17° ESE 03:39:27 10° E visible
13 Mar 4.2 05:24:44 32° SW 05:27:26 51° S 05:32:30 10° E visible
14 Mar 4.5 04:33:03 49° SSE 04:33:03 49° SSE 04:38:20 10° E visible
14 Mar 4.0 06:19:51 10° W 06:26:11 54° S 06:30:54 10° ESE visible
15 Mar 5.8 03:41:19 26° ESE 03:41:19 26° ESE 03:44:00 10° E visible
15 Mar 4.2 05:28:07 31° WSW 05:31:28 58° S 05:36:50 10° ESE visible
16 Mar 4.3 04:36:22 59° S 04:36:34 59° S 04:42:39 10° E visible
16 Mar 4.2 06:23:28 10° W 06:30:11 49° SSW 06:35:05 10° ESE visible
